Погода Ивано-Франковск

Погода Ивано-Франковск : погода сейчас, прогноз погоды и архив. Всё, что Вы хотите узнать о погоде Ивано-Франковск!

Поиск расширенной информации на нашем сайте:

Полезная информация:

Другие новости

Новости СМИ2

Главная страница сайта

Новости сайта

03.07.2017

Напоминаем, что на нашем специализированном сайте Метеоцентр.Азия вы можете получить высокодетализированные автоматические прогнозы погоды по пунктам России, СНГ и мира в авиационном формате (включающие направление и скорость ветра, видимость, явления погоды, количество и форму облачности, нижнюю и верхнюю границу облачности).

Рекомендуем:

Погода Ивано-Франковск - сегодня

Время (UTC), дата Ветер
(°,м/с) 
Видим.   Явления Облачность Т
(°С)
Тd
(°С)
f(%) Тe
(°С)
Pmin
(гПа)
dP
(гПа)
Po
(мм)
O2
(г/м3)
Тmin Tmax R s Состояние
почвы
12 15.07.19 340 (С) 20000 м    9/9 1000 м 
[Sc]
+19.9 +10.2 54 +23  1011  -0.1  734  274           
15 15.07.19 350 (С) 50000 м    8/8 1080 м 
[Cu med, cong]
+22 +9.3 44 +23  1010.6  -0.2  734  272           
18 15.07.19 350 (С) 50000 м    4/0 средняя 
[Ac trans]
+18.4 +10.3 59 +21  1011.7  0.7  734  275    +22.5       
21 15.07.19 тихо ()   30000 м    4/0 средняя 
[Ac trans]
+12.6 +10.5 87 +15  1013.3  0.9  735  281           
00 16.07.19 220 (ЮЗ) 20000 м    3/0 верхняя 
[Ci fib]
+11.2 +10 92 +13  1013.2  -0.2  735  283           
03 16.07.19 тихо ()   20000 м    ясно 
+8.2 +7.6 96 +8  1013.5  -0.1  735  286           
06 16.07.19 тихо ()   50000 м    ясно 
+17.1 +11.5 70 +21  1012.5  0.1  735  277  +8.1         
09 16.07.19 300 (СЗ) 50000 м    8/8 1300 м 
[Cu med, cong]
+21.8 +9.5 45 +23  1011.4  -0.6  735  272           
12 16.07.19 330 (СЗ) 50000 м    8/8 1380 м 
[Cu med, cong]
+23.3 +8.4 39 +23  1010.1  -1.1  734  271           
15 16.07.19 350 (С) 50000 м    5/5 1380 м 
[Cu med, cong]
+24.1 +6.5 32 +24  1009.1  -0.9  733  270           
18 16.07.19 тихо ()   50000 м    4/4 1000 м 
[Sc]
+20.1 +14.1 68 +28  1009.3  -0.2  733  272    +25.2       
21 16.07.19 330 (СЗ) 20000 м    6/0 средняя 
[Ac trans]
+17.7 +10.9 64 +21  1010.7  1.1  734  276           
00 17.07.19 320 (СЗ) 10 км    9/5 1300 м средняя 
[Sc|Ac trans]
+15.7 +11.7 77 +20  1012.2  1.2  735  278           
03 17.07.19 280 (З) 10 км  слаб. дождь  8/8 800 м 
[Sc]
+14.5 +12.3 87 +20  1011.5  -0.8  734  278           
06 17.07.19 290 (З) 10 км  {дождь}  8/8 1300 м 
[Sc]
+16.7 +10.8 68 +20  1010.8  -0.4  734  277  +14.4    0.0     
09 17.07.19 280 (З) 20000 м    8/8 1200 м 
[Sc]
+20 +9.6 51 +21  1010  -0.5  733  274           
12 17.07.19 300 (СЗ) 50000 м    8/8 1300 м 
[Sc]
+21.2 +9.8 48 +23  1009.2  -0.6  733  272           
15 17.07.19 310 (СЗ) 50000 м    8/0 средняя 
[Ac trans]
+20.5 +7.9 44 +21  1009.5  0.2  733  273           
18 17.07.19 290 (З) 40000 м    8/0 средняя 
[Ac trans]
+17.8 +9.8 59 +20  1010.9  1.1  734  276    +22.7       
21 17.07.19 250 (З) 20000 м    8/0 средняя 
[Ac trans]
+13.7 +10.3 80 +17  1012.6  1.2  735  280           
00 18.07.19 250 (З) 20000 м    4/0 верхняя 
[Ci fib]
+10.6 +9 90 +11  1013  735  283           
03 18.07.19 220 (ЮЗ) 20000 м    3/0 верхняя 
[Ci fib]
+8.7 +8.1 96 +9  1013.7  0.4  735  286           
06 18.07.19 280 (З) 50000 м    3/0 верхняя 
[Ci fib]
+17.6 +11.6 68 +23  1013  0.4  735  276  +8.6         
09 18.07.19 310 (СЗ) 50000 м    8/8 1380 м 
[Sc]
+19.7 +8.3 48 +20  1013.2  0.4  736  275           
12 18.07.19 320 (СЗ) 50000 м    4/4 1500 м 
[Cu hum]
+22.6 +9.9 44 +24  1012.9  736  272           
Время (UTC), дата Ветер
(°,м/с) 
Видим.   Явления Облачность Т
(°С)
Тd
(°С)
f(%) Тe
(°С)
Pmin
(гПа)
dP
(гПа)
Po
(мм)
O2
(г/м3)
Тmin Tmax R s Состояние
почвы

Для получения пояснительной информации подведите курсор к названию столбца.

ПОГОДА Ивано-Франковск - архив

Всё, что Вы хотите узнать о погоде Ивано-Франковск - удобно и подробно!

Выберите нужную дату (начиная с 1 января 2018* года) и нажмите кнопку "Найти".
Будут отображены архивные сводки погоды по пункту Ивано-Франковск, начиная с указанной даты.


Отображать данные в формате CSV (для использования в таблицах Excel)


Внимание! Наш архив погоды предназначен исключительно для личного некоммерческого использования в познавательных целях. Если Вам необходимы официальные справки о состоянии погоды (для производственных, юридических, коммерческих и т.п. целей), обращайтесь в органы Росгидромета.

*Примечание: данная дата относится к архиву по метеостанциям СССР (Россия, СНГ, Балтия).
Архив по метеостанциям Зарубежной Европы и Азии (кроме Китая) хранится 10 дней, по другим регионам земного шара (Китай, Африка, Америка, Австралия, Океания) - 1 день.

Ивано-Франковск - район местоположения метеостанции


Название, широта, долгота, высота метеостанции:
Ивано-Франковск 49°ш. 24.4°д. 280 м над ур. моря [Украина]

Дополнительная информация

В oтличие oт бoльшинства пoгoдных сайтoв мы публикуем пoдрoбную метеoинфoрмацию в детальнoм прoфессиoнальнoм фoрмате.

Характеристики температуры и влажнoсти вoздуха измеряются на высoте 2 м в тени вдали oт зданий и деревьев.
Скoрoсть ветра измеряется на высoте 10 м (на урoвне рoста челoвека скoрoсть ветра ниже в 1.5-2 раза). Если метеoстанция нахoдится в гoрoде или в лесу, тo скoрoсть ветра занижена на 2-4 м/с пo сравнению с oткрытым местoм. Скoрoсть ветра над акватoриями крупных рек и oзёр, а также на вершинах хoлмoв на 2-5 м/с выше, чем в oбычных услoвиях.
Атмoсфернoе давление в разных тoчках местнoсти мoжет значительнo oтличаться oт давления на метеoстанции, в зависимoсти oт услoвий рельефа (при пoдъёме на 10 м давление пoнижается примернo на 1 мм рт.ст.).